This demonstration page uses our WeatherBlox Daily Observations layout. Learn more.

Left ArrowRight Arrow

36.19886, -115.1175

Hourly Observations for October 27, 2020

Temp ( °F °C ) Dew Point ( °F °C ) Humidity (%) Winds ( mph kmh ) Pressure ( in mb ) Visibility ( mi km ) Precip ( " mm )
12:53 am 00:53 Clear 44 6.7 4 -15.6 19 19 WNW 5 7 30.17 1022 10 16 0.00 0.00
1:53 am 01:53 Clear 51 10.6 -10 -23.3 7 7 N 15 24 30.15 1021 10 16 0.00 0.00
2:53 am 02:53 Clear 53 11.7 -10 -23.3 7 7 NNW 18 30 30.13 1020 10 16 0.00 0.00
3:53 am 03:53 Clear 53 11.7 -8 -22.2 7 7 N 14 22 30.13 1020 10 16 0.00 0.00
4:53 am 04:53 Clear 51 10.6 -8 -22.2 8 8 N 12 19 30.14 1021 10 16 0.00 0.00
5:53 am 05:53 Clear 52 11.1 -7 -21.7 8 8 N 18 30 30.16 1021 10 16 0.00 0.00
6:53 am 06:53 Clear 51 10.6 -7 -21.7 8 8 NE 13 20 30.19 1022 10 16 0.00 0.00
7:53 am 07:53 Sunny 52 11.1 -7 -21.7 8 8 NNE 16 26 30.21 1023 10 16 0.00 0.00
8:53 am 08:53 Sunny 54 12.2 -6 -21.1 8 8 ENE 10 17 30.22 1024 10 16 0.00 0.00
9:53 am 09:53 Sunny 58 14.4 -5 -20.6 7 7 NNE 10 17 30.21 1023 10 16 0.00 0.00
10:53 am 10:53 Sunny 62 16.7 -5 -20.6 6 6 N 14 22 30.20 1023 10 16 0.00 0.00
11:53 am 11:53 Sunny 65 18.3 -2 -18.9 6 6 N 13 20 30.17 1022 10 16 0.00 0.00
12:53 pm 12:53 Sunny 66 18.9 1 -17.2 7 7 NW 12 19 30.15 1021 10 16 0.00 0.00
1:53 pm 13:53 Sunny 69 20.6 7 -13.9 9 9 NW 21 33 30.09 1019 10 16 0.00 0.00
2:53 pm 14:53 Sunny 70 21.1 9 -12.8 9 9 NW 10 17 30.07 1018 10 16 0.00 0.00
3:53 pm 15:53 Sunny 70 21.1 12 -11.1 10 10 NNW 12 19 30.07 1018 10 16 0.00 0.00
4:53 pm 16:53 Sunny 70 21.1 13 -10.6 11 11 NNW 8 13 30.06 1018 10 16 0.00 0.00
5:53 pm 17:53 Clear 68 20 15 -9.4 13 13 NNW 6 9 30.06 1018 10 16 0.00 0.00
6:53 pm 18:53 Clear 66 18.9 14 -10 13 13 NNW 6 9 30.06 1018 10 16 0.00 0.00
7:53 pm 19:53 Clear 64 17.8 13 -10.6 13 13 VRB 7 11 30.09 1019 10 16 0.00 0.00
8:53 pm 20:53 Clear 61 16.1 9 -12.8 13 13 ENE 5 7 30.10 1019 10 16 0.00 0.00
9:53 pm 21:53 Clear 59 15 11 -11.7 15 15 Calm 30.11 1020 10 16 0.00 0.00
10:53 pm 22:53 Clear 57 13.9 13 -10.6 17 17 W 6 9 30.11 1020 10 16 0.00 0.00
11:53 pm 23:53 Clear 55 12.8 16 -8.9 21 21 WNW 6 9 30.10 1019 10 16 0.00 0.00

Powered by AerisWeather